Notices

What's New in latest Release from April 7th, 2021:

- Updated Glossary, including Speed of Maximum Gust, and Total Hourly Precipitation

- Updated national and regional climate services offices contacts and prices information

- Addition of station inventory lists for 1981-2010, 1971-2000, and 1961-1990 Normals.

If you haven't already, please take our survey and provide feedback about our website: https://eccc.sondage-survey.ca/f/LanguageSelection.aspx?s=442ca660-fcf1-47c0-95a9-59707d6fd709

Hourly Data Report for March 09, 2017

MIRAMICHI RCS
NEW BRUNSWICK

47°00'34.000" N
65°27'54.000" W
33.00 m
8100989
71744
ACQ

Download Data

Hourly Data (March 2017)
Hourly Data Report for March 9, 2017
TIME
LST
Temp Definition
°C
Dew Point Definition
°C
Rel Hum Definition
%
Precip. Amount Definition
mm

Wind Dir Definition
10's deg

Wind Spd Definition
km/h
Visibility Definition
km
Stn Press Definition
kPa
Hmdx Definition


Wind Chill Definition


Weather Definition


00:00 -0.1 -1.0 94 0.0 23 16   99.86   -5 LegendNANA
01:00 0.1 -0.7 94 0.0 23 20   99.83     LegendNANA
02:00 0.6 -0.4 93 0.0 23 20   99.74     LegendNANA
03:00 0.3 -1.0 91 0.0 24 16   99.71     LegendNANA
04:00 0.0 -1.5 90 0.0 23 17   99.65   -5 LegendNANA
05:00 -0.3 -1.5 91 0.0 23 16   99.61   -5 LegendNANA
06:00 -0.5 -1.4 94 0.0 23 12   99.56   -4 LegendNANA
07:00 -0.3 -1.2 94 0.0 22 13   99.51   -4 LegendNANA
08:00 0.3 -0.8 92 0.0 23 13   99.44     LegendNANA
09:00 1.1 -0.6 89 0.0 24 14   99.41     LegendNANA
10:00 2.8 -1.0 76 0.0 24 21   99.37     LegendNANA
11:00 3.4 -2.1 67 0.0 24 23   99.31     LegendNANA
12:00 3.4 -3.1 63 0.0 24 30   99.25     LegendNANA
13:00 0.8 -1.9 82 0.4 25 30   99.23     LegendNANA
14:00 2.3 -3.7 65 0.0 24 32   99.14     LegendNANA
15:00 2.1 -5.0 60 0.0 25 32   99.16     LegendNANA
16:00 1.2 -4.2 67 0.0 28 26   99.19     LegendNANA
17:00 0.9 -7.2 55 0.0 28 31   99.27     LegendNANA
18:00 0.7 -8.2 52 0.0 29 26   99.38     LegendNANA
19:00 -0.2 -9.2 51 0.0 28 22   99.51   -6 LegendNANA
20:00 -1.4 -10.3 51 0.0 29 32   99.64   -9 LegendNANA
21:00 -2.0 -10.7 51 0.2 29 29   99.75   -9 LegendNANA
22:00 -3.3 -8.0 70 0.0 31 19   99.88   -9 LegendNANA
23:00 -4.0 -12.3 52 0.0 29 23   99.96   -11 LegendNANA

Notes on Data Quality.

Legend

  • E = Estimated
  • M = Missing
  • NA = Not Available*
  • [empty] = Indicates an unobserved value
Date modified: